Regional Weather Roundup
Issued by NWS

Home | Current Version | Previous Version | Text Only | Print | Product List | Glossary Off
Versions: 1 2 3 4 5 6 7 8 9 10 11 12 13 14 15 16 17 18 19 20 21 22 23 24 25 26 27 28 29 30 31 32 33 34 35 36 37 38 39 40 41 42 43 44 45 46 47 48 49 50

000
ASUS45 KPSR 170210
RWRAZ

ARIZONA REGIONAL HOURLY WEATHER ROUNDUP
NATIONAL WEATHER SERVICE PHOENIX AZ
700 PM MST WED APR 16 2014

NOTE: FAIR INDICATES FEW OR NO CLOUDS BELOW 12,000 FEET WITH NO
SIGNIFICANT WEATHER AND/OR OBSTRUCTIONS TO VISIBILITY.

AZZ001>003-036-170300-
NORTHWEST ARIZONA

CITY           SKY/WX    TMP DP  RH WIND       PRES   REMARKS
BULLHEAD CITY  CLEAR     91  23   8 CALM      29.64R
KINGMAN        CLEAR     76  12   8 N10       29.80R
$$

AZZ004>008-015-016-018-170300-
NORTH CENTRAL ARIZONA

CITY           SKY/WX    TMP DP  RH WIND       PRES   REMARKS
GRAND CANYON   PTCLDY    58  18  21 N7        29.97R
WILLIAMS       PTCLDY    61  10  13 W9G18     30.02R
PRESCOTT       CLEAR     69  13  11 SW14      29.87R
FLAGSTAFF      MOCLDY    60  10  14 W6        29.97R
PAYSON         PTCLDY    68  12  11 SW8G15    29.91R
PAGE           PTCLDY    67  27  22 N6        29.87R
$$

AZZ009>014-017-170300-
NORTHEAST ARIZONA

CITY           SKY/WX    TMP DP  RH WIND       PRES   REMARKS
WINSLOW        MOCLDY    68  17  14 N10       29.85R
SAINT JOHNS    PTCLDY    63   8  11 NW7       29.87R
WINDOW ROCK    MOCLDY    55  18  23 N6        29.96R
SHOW LOW       PTCLDY    59   9  13 W9        29.95R
$$

AZZ023-170300-
GREATER PHOENIX AREA

CITY           SKY/WX    TMP DP  RH WIND       PRES   REMARKS
PHOENIX        PTCLDY    88  17   7 SW7       29.66S
BUCKEYE          N/A     81  32  17 S7        29.68R
GLENDALE       PTCLDY    88  19   8 S10       29.68R
DEER VALLEY    CLEAR     84  16   8 SW13      29.68R
SCOTTSDALE     CLEAR     86  19   8 SW6       29.70S
MESA-FALCON    PTCLDY    86  14   7 W6        29.69S
MESA-GATEWAY   CLEAR     84  14   7 W7        29.71S
CHANDLER       PTCLDY    86  16   7 SW9       29.69R
$$

AZZ027-028-170300-
SOUTHWEST MARICOPA COUNTY AND PINAL COUNTY

CITY           SKY/WX    TMP DP  RH WIND       PRES   REMARKS
CASA GRANDE    CLEAR     84  23  10 NW3       29.71S
GILA BEND      PTCLDY    88  23   9 NW3       29.69R
$$

AZZ503-504-507>509-170300-
SOUTHEAST ARIZONA

CITY           SKY/WX    TMP DP  RH WIND       PRES   REMARKS
TUCSON         CLEAR     82   5   5 W7        29.78R
DAVIS-MONTHAN  CLEAR     81  11   7 W9        29.77R
RYAN FIELD       N/A     82  12   7 W12       29.77R
NOGALES        CLEAR     74   2   6 SW9       29.86R
SIERRA VISTA   PTCLDY    72  -2   5 W14       29.89R
DOUGLAS        CLEAR     75  -8   4 W21G28    29.85R
SAFFORD        CLEAR     77  -1   5 NW16      29.75R
$$

AZZ020-021-025-026-031-170300-
SOUTHWEST ARIZONA

CITY           SKY/WX    TMP DP  RH WIND       PRES   REMARKS
YUMA           NOT AVBL
$$

CAZ031-033-041-043-047-048-061-170300-
SOUTHERN CALIFORNIA

CITY           SKY/WX    TMP DP  RH WIND       PRES   REMARKS
DOWNTOWN L.A.  CLEAR     63  53  70 VRB6      29.80R
L.A. AIRPORT   PTCLDY    60  52  74 W10       29.81R
SAN DIEGO      MOCLDY    63  52  67 SW7       29.84S
BURBANK        CLEAR     65  51  60 S8        29.78R
ONTARIO        CLEAR     70  49  47 W13       29.79R
RIVERSIDE      CLEAR     71  50  47 W8        29.78R
PALM SPRINGS   CLEAR     88  38  17 NW16      29.65R
EL CENTRO NAS  CLEAR     86  41  20 SE7       29.61S
IMPERIAL       CLEAR     89  34  14 SE12      29.61S
BLYTHE         CLEAR     90  29  11 S13       29.62S
NEEDLES        CLEAR     93  14   5 SW5       29.64R
$$

NVZ020-UTZ003-170300-
SOUTHERN NEVADA-UTAH

CITY           SKY/WX    TMP DP  RH WIND       PRES   REMARKS
LAS VEGAS      PTCLDY    83  18   9 SE7       29.68R
SALT LAKE CITY PTCLDY    51  15  23 W6        29.99S
$$

NMZ009-TXZ055-170300-
NEW MEXICO-WEST TEXAS

CITY           SKY/WX    TMP DP  RH WIND       PRES   REMARKS
ALBUQUERQUE    CLOUDY    66  14  13 N18G25    29.88R
EL PASO        PTCLDY    79   1   5 W10       29.74R
$$


........................KEY........................
SKY/WX - SKY CONDITION/WEATHER
TMP    - TEMPERATURE IN FAHRENHEIT
DP     - DEW POINT IN FAHRENHEIT
RH     - RELATIVE HUMIDITY IN PERCENT
WIND   - DIRECTION AND SPEED IN MILES PER HOUR (MPH)
VRB    - VARIABLE WIND DIRECTION
PRES   - MEAN SEA LEVEL PRESSURE IN INCHES OF MERCURY
         F - FALLING PRESSURE   R - RISING PRESSURE
         S - STEADY PRESSURE
VSB    - VISIBILITY IN MILES
HX     - HEAT INDEX IN FAHRENHEIT
WCI    - WIND CHILL INDEX IN FAHRENHEIT
TC     - TEMPERATURE IN CELSIUS WHICH IS ALSO KNOWN AS
         TEMPERATURE IN CENTIGRADE
AFB    - AIR FORCE BASE
         LUKE AFB IS LUKE AIR FORCE BASE
         DAVIS-MONTHAN IS DAVIS-MONTHAN AIR FORCE BASE
NAS    - NAVAL AIR STATION
         EL CENTRO NAS IS EL CENTRO NAVAL AIR STATION
N/A    - NOT AVAILABLE



USA.gov is the U.S. government's official web portal to all federal, state and local government web resources and services.